www.pogodaiklimat.ru
Время
(UTC), дата
22:53 29.12
23:53 29.12
00:53 29.12
01:53 29.12
02:53 29.12
03:53 29.12
04:53 29.12
05:53 29.12
06:53 30.12
07:53 30.12
08:53 30.12
09:53 30.12
10:53 30.12
11:53 30.12
12:53 30.12
13:53 30.12
14:53 30.12
15:53 30.12
16:53 30.12
17:53 30.12
18:53 30.12
19:53 30.12
20:53 30.12
21:53 30.12
22:53 30.12
23:53 30.12
00:53 30.12
01:53 30.12
02:53 30.12
03:53 30.12
04:53 30.12
05:53 30.12
06:53 31.12
07:53 31.12
08:53 31.12
09:53 31.12
10:53 31.12
11:53 31.12
12:53 31.12
13:53 31.12
14:53 31.12
15:53 31.12
16:53 31.12
17:53 31.12
18:53 31.12
19:53 31.12
20:53 31.12
21:53 31.12
Ветер
(напр.,м/с)
Видим. Явления Облачность Т
(С)
Тd
(С)
f
(%)
Тe
(С)
Тes
(С)
Комфортность P
(гПа)
Po
(гПа)
Тmin
(С)
Tmax
(С)
R
(мм)
R24
(мм)
S
(см)
СЗ 10
{14}
16 км ясно -3.9 -8.9 68 -14 -14 1013.3 874.3 -3.9 -2.8
СЗ 10
{13}
16 км ясно -4.4 -8.9 71 -14 -14 1013.8 874.6
СЗ 11
{15}
16 км 2/0 2550 м
[средняя]
-4.4 -9.4 68 -15 -15 1013.9 874.6
СЗ 14
{17}
16 км 5/0 2400 м
[средняя]
-4.4 -8.9 71 -15 -15 1014.0 874.9
СЗ 13
{17}
16 км ясно -4.4 -7.8 77 -15 -15 1014.7 875.5
СЗ 10
{14}
16 км ясно -5.0 -9.4 71 -15 -15 1015.0 875.8
СЗ 9 16 км ясно -5.6 -10.0 71 -15 -15 1015.3 875.8 -5.6 -3.9
СЗ 9 16 км ясно -5.6 -10.0 71 -15 -15 1015.3 876.1
СЗ 10 16 км 5/0 3000 м
[средняя]
-5.0 -10.0 68 -15 -15 1015.8 876.4
СЗ 7 16 км ясно -6.7 -11.1 71 -16 -16 1016.8 877.0
СЗ 8 16 км ясно -6.1 -11.1 68 -15 -15 1017.1 877.6
СЗ 12
{17}
16 км ясно -5.6 -11.1 65 -16 -16 1016.9 877.3
СЗ 12
{15}
16 км ясно -6.1 -11.7 65 -17 -17 1017.3 877.6 -7.8 -4.4
СЗ 11
{15}
16 км ясно -6.1 -12.2 62 -17 -17 1018.3 878.4
СЗ 10 16 км ясно -6.7 -12.8 62 -17 -17 1019.3 879.0
СЗ 12
{16}
16 км ясно -5.6 -12.2 60 -16 -16 1019.8 879.6
СЗ 12
{16}
16 км ясно -5.0 -12.2 57 -15 -15 1020.6 880.5
СЗ 13
{17}
16 км ясно -3.9 -12.2 52 -14 -14 1021.2 880.8
СЗ 8 16 км ясно -3.3 -11.1 55 -11 -11 1021.6 881.4 -7.2 -3.3
СЗ 8 16 км ясно -2.8 -10.6 55 -11 -11 1020.7 880.8
СЗ 8 16 км ясно -2.8 -10.0 58 -11 -11 1020.4 880.5
16 км ясно -2.8 -10.0 58 -3 +1 1020.4 880.2
СЗ 8
{13}
16 км ясно -2.8 -10.0 58 -11 -11 1020.4 880.2
З 10 16 км ясно -3.3 -10.6 57 -12 -12 1020.5 880.2
З 7 16 км ясно -5.6 -11.7 62 -14 -14 1021.3 880.8 -5.6 -2.8
З 8 16 км ясно -6.7 -12.2 65 -16 -16 1021.2 880.5
З 6 16 км ясно -8.9 -13.3 70 -18 -18 1022.4 880.8
З 6 16 км ясно -8.3 -13.9 64 -17 -17 1021.9 880.8
З 6 16 км ясно -10.6 -15.0 70 -20 -20 1022.5 881.1
З 6 16 км ясно -11.1 -15.6 69 -20 -20 1022.1 880.8
З 5 16 км ясно -11.1 -15.6 69 -20 -20 1022.1 880.8 -11.7 -5.6
З 5 16 км ясно -10.0 -14.4 70 -19 -19 1020.8 880.2
З 6 16 км ясно -10.6 -15.0 70 -20 -20 1020.8 879.9
З 7 16 км ясно -9.4 -14.4 67 -19 -19 1020.8 880.2
З 6 16 км ясно -10.0 -15.0 67 -19 -19 1020.7 879.9
З 6 16 км ясно -12.2 -16.1 73 -21 -21 1020.9 879.6
З 5 16 км ясно -13.3 -17.2 72 -23 -23 1021.2 879.3 -13.3 -9.4
З 5 16 км ясно -14.4 -18.3 72 -24 -24 1021.4 879.3
З 6 16 км ясно -14.4 -18.3 72 -24 -24 1021.1 878.7
З 3 16 км ясно -16.1 -19.4 76 -24 -24 1021.0 878.4
З 3 16 км ясно -11.7 -16.1 70 -18 -18 1020.6 878.4
ЮЗ 1 16 км ясно -6.7 -12.2 65 -10 -9 1019.6 878.1
З 7 16 км ясно -1.1 -8.9 55 -8 -8 1017.3 877.3 -16.7 -1.1
З 7 16 км ясно +0.6 -7.8 53 -6 -6 1015.6 876.1
З 7 16 км ясно +0.6 -7.8 53 -6 -5 1014.6 875.2
З 8 16 км ясно +1.1 -7.8 51 -6 -5 1013.4 874.6
З 6 16 км ясно +1.1 -6.7 56 -5 -4 1013.5 874.3
З 6 16 км ясно 0.0 -7.8 56 -6 -6 1013.3 873.7
Местоположение метеостанции Alliance Minicipal Airport: широта 42.0600 долгота -102.8000 высота над уровнем моря 1197 м.
В архиве по умолчанию представлена погода в Аллайансе за последние 1-2 суток. Обновление информации о фактической погоде в базе происходит ежечасно! Архивные данные за месяц целиком и за предыдущие месяцы Вы можете получить, выбрав интересующий диапазон дат из раскрывающегося списка и нажав кнопку "Ввод!".
Внимание! Архив погоды МЕТАР в базе сайта по станциям, не включенным в климатический монитор, хранится не более 60 дней. Нет смысла пытаться выбрать более раннюю дату.
*Определитесь, кто Вы:
Внимание! Время в таблицах - всемирное. Для получения местного времени необходимо прибавить поправку, которая равна ч.
Смотрите также архив погоды в соседних городах и на ближайших метеорологических станциях:
Партнеры нашего сайта:      
Пояснения к столбцам:
  • Ветер - указаны скорость ветра в м/с - средняя за 10 мин, порывы в срок и между сроками (в фигурных скобках) и направление, откуда дует ветер: С - северный,
  • СВ - северо-восточный, В - восточный, ЮВ - юго-восточный, Ю - южный, ЮЗ - юго-западный, З - западный, СЗ - северо-западный.
  • Видимость - горизонтальная дальность видимости в метрах или километрах. При видимости от 1 до 10 км при отсутствии осадков обычно наблюдается дымка, при ухудшении видимости до 1 км и менее - туман. В сухую погоду видимость может ухудшаться дымом, пылью или мглою.
  • Явления - указаны атмосферные явления, наблюдавшиеся в срок или в последний час перед сроком; фигурными скобками обозначены явления, наблюдавшиеся между сроками (за 1-3 часа до срока); квадратными скобками обозначены град или гололедные отложения с указанием их диаметра в мм.
  • Облачность - указаны через наклонную черту общая и нижняя облачность в баллах и высота нижней границы облаков в метрах; квадратными скобками обозначены формы облаков: Ci - перистые, Cs - перисто-слоистые, Cc - перисто-кучевые, Ac - высококучевые, As - высокослоистые, Sc - слоисто-кучевые, Ns - слоисто-дождевые, Cu - кучевые, Cb - кучево-дождевые. Подробнее классификацию облаков см. в Атласе облаков (PDF).
  • T - Температура воздуха - температура, измеренная на высоте 2 м над землей.
  • Td - Температура точки росы - температура, при понижении до которой содержащийся в воздухе водяной пар достигнет насыщения.
  • f - Относительная влажность воздуха - влажноcть воздуха, измеренная на высоте 2 м над землей.
  • Te - Эффективная температура - температура, которую ощущает одетый по сезону человек в тени. Характеристика душности погоды. При расчете учитывается влияние влажности воздуха и скорости ветра на теплоощущения человека.
  • Tes - Эффективная температура на солнце - температура, которую ощущает человек, с поправкой на солнечный нагрев. Характеристика знойности погоды. Зависит от высоты солнца над горизонтом, облачности и скорости ветра. Ночью, в пасмурную погоду, а также при ветре 12 м/с и более поправка равна нулю.
  • P - Атмосферное давление - приведенное к уровню моря атмосферное давление.
  • Po - Атмосферное давление - измеренное на уровне метеостанции атмосферное давление.
  • Tmin - Минимальная температура - минимум температуры воздуха на высоте 2 м над землей.
  • Tmax - Максимальная температура - максимум температуры воздуха на высоте 2 м над землей.
  • R - Количество осадков - Количество выпавших осадков за период времени, мм. При наведении курсора мыши на число - период времени, за который выпало указанное количество осадков.
  • R24 - Количество осадков - Количество выпавших осадков за 24 часа, мм.
  • S - Снежный покров - Высота снежного покрова, см. При наведении курсора мыши на число - состояние снежного покрова и степень покрытия местности в баллах.